Change the Weather History Date:

Saturday, April 6, 2013

  Actual Average Record
Temperature  
Mean Temperature 48 °F 44 °F  
Max Temperature 62 °F 58 °F 75 °F (2004)
Min Temperature 34 °F 29 °F 18 °F (2009)
Degree Days  
Heating Degree Days 17 21  
Month to date heating degree days 91 132  
Since 1 July heating degree days 6823 6974  
Cooling Degree Days 0 0  
Month to date cooling degree days 0 0  
Year to date cooling degree days 0 0  
Moisture  
Dew Point 33 °F    
Average Humidity 63    
Maximum Humidity 96    
Minimum Humidity 29    
Precipitation  
Precipitation 0.00 in 0.02 in 0.02 in (1999)
Month to date precipitation 0.06 0.09  
Year to date precipitation 0.57 0.90  
Sea Level Pressure  
Sea Level Pressure 29.82 in    
Wind  
Wind Speed 5 mph (SE)    
Max Wind Speed 21 mph    
Max Gust Speed 26 mph    
Visibility 10 miles    
Events      
T = Trace of Precipitation, MM = Missing Value Source: NWS Daily Summary

Daily Weather History Graph

Daily Weather History Graph

Search for Another Location

Airport or City:

Trip Planner

Search our weather history database for the weather conditions in past years. The results will help you decide how hot, cold, wet, or windy it might be!

Date:

Astronomy

Apr. 06, 2013 Rise Set
Actual Time 6:43 AM MDT 7:46 PM MDT
Civil Twilight 6:13 AM MDT 8:16 PM MDT
Nautical Twilight 5:38 AM MDT 8:51 PM MDT
Astronomical Twilight 5:01 AM MDT 9:29 PM MDT
Moon 4:37 AM MDT (4/6) 4:10 PM MDT (4/6)
Length of Visible Light 14h 02m
Length of Day
13h 02m
Waning Crescent, 14% of the Moon is Illuminated
Apr 6
Waning Crescent
Apr 10
New
Apr 18
First Quarter
Apr 25
Full
May 2
Last Quarter

Hourly Weather History & Observations

Time (MDT) Temp. Windchill Dew Point Humidity Pressure Visibility Wind Dir Wind Speed Gust Speed Precip Events Conditions
12:53 AM 42.1 °F 39.2 °F 36.0 °F 79% 29.84 in 10.0 mi SSE 4.6 mph - N/A   Scattered Clouds
1:53 AM 41.0 °F 36.4 °F 33.1 °F 73% 29.83 in 10.0 mi SE 6.9 mph - N/A   Mostly Cloudy
2:53 AM 39.0 °F 34.8 °F 35.1 °F 86% 29.85 in 10.0 mi East 5.8 mph - N/A   Partly Cloudy
3:53 AM 39.0 °F 35.7 °F 36.0 °F 89% 29.86 in 10.0 mi SE 4.6 mph - N/A   Mostly Cloudy
4:53 AM 37.9 °F 34.4 °F 35.1 °F 89% 29.87 in 10.0 mi ESE 4.6 mph - N/A   Clear
5:53 AM 34.0 °F - 32.0 °F 92% 29.87 in 10.0 mi Calm Calm - N/A   Clear
6:53 AM 35.1 °F 32.2 °F 33.1 °F 92% 29.88 in 10.0 mi NW 3.5 mph - N/A   Partly Cloudy
7:53 AM 39.0 °F 36.8 °F 35.1 °F 86% 29.88 in 10.0 mi East 3.5 mph - N/A   Mostly Cloudy
8:53 AM 41.0 °F 38.0 °F 36.0 °F 82% 29.88 in 10.0 mi SE 4.6 mph - N/A   Mostly Cloudy
9:53 AM 45.0 °F - 39.0 °F 80% 29.87 in 10.0 mi Calm Calm - N/A   Partly Cloudy
10:53 AM 48.9 °F - 39.0 °F 69% 29.86 in 10.0 mi South 4.6 mph - N/A   Overcast
11:53 AM 53.1 °F - 36.0 °F 52% 29.86 in 10.0 mi South 5.8 mph - N/A   Scattered Clouds
12:53 PM 55.9 °F - 30.9 °F 39% 29.83 in 10.0 mi Calm Calm - N/A   Clear
1:53 PM 57.9 °F - 28.9 °F 33% 29.80 in 10.0 mi Calm Calm - N/A   Partly Cloudy
2:53 PM 61.0 °F - 30.0 °F 31% 29.77 in 10.0 mi SSE 8.1 mph - N/A   Mostly Cloudy
3:53 PM 61.0 °F - 28.0 °F 29% 29.75 in 10.0 mi SE 4.6 mph - N/A   Mostly Cloudy
4:53 PM 60.1 °F - 28.9 °F 31% 29.75 in 10.0 mi South 4.6 mph - N/A   Overcast
5:53 PM 60.1 °F - 28.0 °F 30% 29.76 in 10.0 mi East 6.9 mph - N/A   Partly Cloudy
6:53 PM 57.9 °F - 30.0 °F 35% 29.76 in 10.0 mi South 8.1 mph - N/A   Mostly Cloudy
7:53 PM 57.9 °F - 28.9 °F 33% 29.76 in 10.0 mi SW 9.2 mph 21.9 mph N/A   Overcast
8:53 PM 53.1 °F - 35.1 °F 50% 29.79 in 10.0 mi South 9.2 mph - N/A   Overcast
9:53 PM 52.0 °F - 35.1 °F 53% 29.79 in 10.0 mi NNE 3.5 mph - N/A   Overcast
10:53 PM 51.1 °F - 33.1 °F 50% 29.78 in 10.0 mi ENE 4.6 mph - N/A   Unknown
11:53 PM 50.0 °F - 34.0 °F 54% 29.76 in 10.0 mi Calm Calm - N/A   Scattered Clouds